HULIANWANG DIGUI 6J

Last updated on Thu Aug 14 2025 00:02:07 GMT+0000 (Coordinated Universal Time)

1 65051U 25162J 25224.72890653 -.00000001 00000+0 91178-4 0 9999 2 65051 50.0060 320.4068 0005675 324.6562 35.3967 14.06428068 1894
UTC large
Height (km)
Speed (km/s)
/
Latitude / Longitude
Inclination (degrees)
Orbital Period (minutes)
Azimuth
Elevation
Range (km)
Doppler Factor

Next 0 passes for location: London (51.5072 / 0.1276)

Sorry there are no passes over London.